Retour au catalogue

STARLINK-34384

ActifCommunicationsVLEO
NORAD 64312·PAYLOAD·🇺🇸 United States

Lancé Jun 8, 2025 depuis Vandenberg Space Force Base

Loading…

Prochains Passages (prochaines 24 heures)

TLE

FraisSource: CelesTrak SupGP

Époque: Sep 14, 2026, 21:35 UTC

1 64312C 25123X   26257.89979167  .00007070  00000+0  24600-3 0  2572
2 64312  70.0001  75.7625 0003158 272.7875   2.6835 15.29566678    13

Suivez STARLINK-34384 en temps réel avec AllMySat

Download on the App Store